K6FW Weather Reports


time (UTC)temp
C
wind
direction
speed
KPH
gust
KPH
rain 1hr
cm
rain 24hr
cm
rain mn
cm
humidity
%
barometer
mb
20260507124012 12 0 0.0 0.0 0.00 0.00 0.00 88 1016.1
20260507123056 12 0 0.0 0.0 0.00 0.00 0.00 88 1016.2
20260507121826 12 0 0.0 0.0 0.00 0.00 0.00 87 1016.1
20260507121557 12 0 0.0 0.0 0.00 0.00 0.00 87 1016.2
20260507120056 12 0 0.0 0.0 0.00 0.00 0.00 87 1016.2
20260507115743 12 0 0.0 0.0 0.00 0.00 0.00 87 1016.3
20260507114731 12 0 0.0 0.0 0.00 0.00 0.00 86 1016.2
20260507114600 12 0 0.0 0.0 0.00 0.00 0.00 86 1016.2
20260507113756 12 0 0.0 0.0 0.00 0.00 0.00 86 1016.3
20260507113102 12 0 0.0 0.0 0.00 0.00 0.00 86 1016.3
20260507112743 12 0 0.0 0.0 0.00 0.00 0.00 86 1016.3
20260507111710 12 0 0.0 0.0 0.00 0.00 0.00 86 1016.5
20260507111605 12 0 0.0 0.0 0.00 0.00 0.00 86 1016.5
20260507110640 12 0 0.0 0.0 0.00 0.00 0.00 85 1016.5
20260507110058 12 0 0.0 0.0 0.00 0.00 0.00 85 1016.5
20260507105705 12 0 0.0 0.0 0.00 0.00 0.00 85 1016.6
20260507104718 13 0 0.0 0.0 0.00 0.00 0.00 84 1016.6
20260507104600 12 0 0.0 0.0 0.00 0.00 0.00 84 1016.6
20260507103055 13 0 0.0 0.0 0.00 0.00 0.00 83 1016.6
20260507102540 13 0 0.0 0.0 0.00 0.00 0.00 83 1016.6
20260507101620 13 0 0.0 0.0 0.00 0.00 0.00 83 1016.6
20260507101510 13 0 0.0 0.0 0.00 0.00 0.00 83 1016.6
20260507100442 13 0 0.0 0.0 0.00 0.00 0.00 83 1016.8
20260507100057 13 0 0.0 0.0 0.00 0.00 0.00 83 1016.8
20260507094558 13 0 0.0 0.0 0.00 0.00 0.00 83 1016.8
20260507093128 13 0 0.0 0.0 0.00 0.00 0.00 82 1017.1
20260507093059 13 0 0.0 0.0 0.00 0.00 0.00 82 1017.1
20260507091556 13 0 0.0 0.0 0.00 0.00 0.00 82 1017.2
20260507091053 13 0 0.0 0.0 0.00 0.00 0.00 81 1017.1
20260507090112 13 0 0.0 0.0 0.00 0.00 0.00 81 1017.3
20260507085050 13 0 0.0 0.0 0.00 0.00 0.00 80 1017.2
20260507084557 13 0 0.0 0.0 0.00 0.00 0.00 80 1017.4
20260507084046 13 0 0.0 0.0 0.00 0.00 0.00 80 1017.5
20260507083057 13 0 0.0 0.0 0.00 0.00 0.00 80 1017.5
20260507083024 13 0 0.0 0.0 0.00 0.00 0.00 80 1017.5
20260507082045 14 0 0.0 0.0 0.00 0.00 0.00 79 1017.5
20260507081558 14 0 0.0 0.0 0.00 0.00 0.00 78 1017.5
20260507080056 14 0 0.0 0.0 0.00 0.00 0.00 78 1017.6
20260507075944 14 0 0.0 0.0 0.00 0.00 0.00 78 1017.6
20260507074936 15 0 0.0 0.0 0.00 0.00 0.00 77 1017.5
20260507074601 14 0 0.0 0.0 0.00 0.00 0.00 76 1017.5
20260507073059 15 0 0.0 0.0 0.00 0.00 0.00 76 1017.6
20260507072802 15 0 0.0 0.0 0.00 0.00 0.00 76 1017.6
20260507071732 15 0 0.0 1.6 0.00 0.00 0.00 75 1017.6
20260507071601 15 360 0.0 1.6 0.00 0.00 0.00 75 1017.6
20260507070727 15 0 0.0 0.0 0.00 0.00 0.00 75 1017.7
20260507070057 15 0 1.6 4.8 0.00 0.00 0.00 75 1017.7
20260507065748 15 0 0.0 1.6 0.00 0.00 0.00 75 1017.7
20260507064757 15 0 0.0 0.0 0.00 0.00 0.00 75 1017.8
20260507064610 15 0 0.0 3.2 0.00 0.00 0.00 75 1017.9
20260507063752 16 0 0.0 0.0 0.00 0.00 0.00 73 1017.9
20260507063057 16 0 0.0 6.4 0.00 0.00 0.00 73 1017.9
20260507062720 16 0 0.0 4.8 0.00 0.00 0.00 73 1017.9
20260507061722 16 0 1.6 4.8 0.00 0.00 0.00 72 1017.8
20260507061557 16 0 1.6 6.4 0.00 0.00 0.00 72 1017.8
20260507060700 16 0 1.6 8.0 0.00 0.00 0.00 72 1017.8
20260507060058 16 360 1.6 8.0 0.00 0.00 0.00 71 1017.7
20260507055706 16 0 3.2 8.0 0.00 0.00 0.00 71 1017.9
20260507054646 16 286 3.2 8.0 0.00 0.00 0.00 70 1017.8
20260507054608 16 286 3.2 9.7 0.00 0.00 0.00 70 1017.9
20260507053059 16 221 3.2 8.0 0.00 0.00 0.00 70 1017.6
20260507052528 17 217 1.6 6.4 0.00 0.00 0.00 70 1017.5
20260507051558 17 216 0.0 6.4 0.00 0.00 0.00 69 1017.5
20260507051510 17 215 0.0 3.2 0.00 0.00 0.00 69 1017.5
20260507050437 17 0 3.2 11.3 0.00 0.00 0.00 68 1017.3
20260507050101 17 360 3.2 14.5 0.00 0.00 0.00 68 1017.3
20260507045414 17 283 6.4 11.3 0.00 0.00 0.00 68 1017.3
20260507044558 17 281 4.8 9.7 0.00 0.00 0.00 68 1017.2
20260507044419 17 285 4.8 8.0 0.00 0.00 0.00 68 1017.2
20260507043400 17 288 4.8 11.3 0.00 0.00 0.00 68 1017.1
20260507043101 17 360 4.8 12.9 0.00 0.00 0.00 68 1017.2
20260507042417 18 278 4.8 11.3 0.00 0.00 0.00 67 1017.3
20260507041611 17 279 4.8 12.9 0.00 0.00 0.00 67 1017.2
20260507041402 18 218 6.4 12.9 0.00 0.00 0.00 67 1017.0
20260507040339 18 293 6.4 12.9 0.00 0.00 0.00 67 1017.1
20260507040059 18 281 6.4 14.5 0.00 0.00 0.00 67 1017.0
20260507034607 18 281 6.4 14.5 0.00 0.00 0.00 66 1016.8
20260507033055 18 221 6.4 17.7 0.00 0.00 0.00 65 1016.6
20260507033025 18 0 6.4 14.5 0.00 0.00 0.00 65 1016.6
20260507032008 19 0 6.4 17.7 0.00 0.00 0.00 65 1016.6
20260507031559 18 213 8.0 19.3 0.00 0.00 0.00 65 1016.5
20260507025824 19 186 8.0 16.1 0.00 0.00 0.00 64 1016.3
20260507024817 20 0 6.4 14.5 0.00 0.00 0.00 63 1016.2
20260507024604 19 275 8.0 16.1 0.00 0.00 0.00 62 1016.1
20260507023757 20 0 8.0 19.3 0.00 0.00 0.00 62 1016.1
20260507023113 20 215 9.7 22.5 0.00 0.00 0.00 61 1015.9
20260507021557 20 207 9.7 19.3 0.00 0.00 0.00 60 1015.8
20260507020456 21 0 8.0 19.3 0.00 0.00 0.00 59 1015.7
20260507020059 21 193 9.7 22.5 0.00 0.00 0.00 58 1015.7
20260507014607 21 360 6.4 17.7 0.00 0.00 0.00 57 1015.6
20260507014331 22 215 8.0 16.1 0.00 0.00 0.00 56 1015.5
20260507013305 22 280 8.0 17.7 0.00 0.00 0.00 55 1015.5
20260507013114 22 217 6.4 19.3 0.00 0.00 0.00 55 1015.5
20260507012317 22 211 8.0 19.3 0.00 0.00 0.00 54 1015.4
20260507011559 22 279 8.0 20.9 0.00 0.00 0.00 54 1015.4
20260507011301 23 0 9.7 19.3 0.00 0.00 0.00 53 1015.4
20260507010316 23 0 9.7 17.7 0.00 0.00 0.00 52 1015.2
20260507010057 23 185 11.3 22.5 0.00 0.00 0.00 52 1015.3
20260507004559 23 284 8.0 20.9 0.00 0.00 0.00 52 1015.2
20260507004202 23 263 9.7 19.3 0.00 0.00 0.00 52 1015.2
20260507003205 23 202 9.7 24.1 0.00 0.00 0.00 52 1015.1
20260507003057 23 180 11.3 24.1 0.00 0.00 0.00 52 1015.2
20260507002201 23 251 14.5 24.1 0.00 0.00 0.00 52 1015.1
20260507001623 23 278 16.1 24.1 0.00 0.00 0.00 51 1015.1
20260507001156 23 217 12.9 25.7 0.00 0.00 0.00 51 1015.1
20260507000220 24 217 11.3 25.7 0.00 0.00 0.00 51 1015.0
20260506235214 24 214 9.7 17.7 0.00 0.00 0.00 51 1014.9
20260506234559 24 192 11.3 24.1 0.00 0.00 0.00 50 1014.9
20260506234159 24 215 9.7 17.7 0.00 0.00 0.00 51 1014.8
20260506233152 25 229 11.3 19.3 0.00 0.00 0.00 50 1014.8
20260506233109 24 215 11.3 25.7 0.00 0.00 0.00 50 1014.9
20260506232157 24 184 9.7 19.3 0.00 0.00 0.00 49 1014.9
20260506231604 24 192 9.7 24.1 0.00 0.00 0.00 50 1015.0
20260506231145 25 192 12.9 22.5 0.00 0.00 0.00 49 1015.0
20260506230203 25 175 11.3 22.5 0.00 0.00 0.00 49 1014.9
20260506230058 25 175 12.9 24.1 0.00 0.00 0.00 48 1014.9
20260506225147 25 273 9.7 20.9 0.00 0.00 0.00 48 1015.0
20260506224604 25 277 12.9 22.5 0.00 0.00 0.00 48 1015.0
20260506224156 26 282 6.4 22.5 0.00 0.00 0.00 46 1015.1
20260506223125 26 296 9.7 24.1 0.00 0.00 0.00 45 1015.3
20260506221603 25 336 11.3 22.5 0.00 0.00 0.00 45 1015.4
20260506220056 25 319 8.0 22.5 0.00 0.00 0.00 45 1015.6
20260506215721 25 208 6.4 20.9 0.00 0.00 0.00 46 1015.8
20260506214705 25 230 6.4 17.7 0.00 0.00 0.00 46 1015.9
20260506214608 25 360 8.0 19.3 0.00 0.00 0.00 46 1015.9
20260506213107 25 281 12.9 29.0 0.00 0.00 0.00 46 1016.1
20260506212516 25 285 8.0 22.5 0.00 0.00 0.00 47 1016.3
20260506211557 24 329 11.3 24.1 0.00 0.00 0.00 48 1016.2
20260506211525 25 302 6.4 22.5 0.00 0.00 0.00 48 1016.2
20260506210535 25 326 9.7 22.5 0.00 0.00 0.00 47 1016.4
20260506210118 24 289 12.9 25.7 0.00 0.00 0.00 47 1016.4
20260506205501 25 270 6.4 22.5 0.00 0.00 0.00 48 1016.5
20260506204556 24 350 9.7 20.9 0.00 0.00 0.00 50 1016.5
20260506203307 23 304 6.4 19.3 0.00 0.00 0.00 51 1016.7
20260506203101 23 294 9.7 19.3 0.00 0.00 0.00 49 1016.7
20260506201602 23 360 11.3 22.5 0.00 0.00 0.00 50 1016.8
20260506201114 23 212 3.2 14.5 0.00 0.00 0.00 51 1016.8
20260506200143 23 267 6.4 17.7 0.00 0.00 0.00 50 1017.0
20260506200126 23 275 6.4 14.5 0.00 0.00 0.00 50 1016.9
20260506195135 22 5 3.2 11.3 0.00 0.00 0.00 52 1017.1
20260506194615 22 211 4.8 12.9 0.00 0.00 0.00 53 1017.3
20260506194200 22 178 4.8 9.7 0.00 0.00 0.00 51 1017.3
20260506193204 22 328 1.6 14.5 0.00 0.00 0.00 53 1017.4
20260506193059 22 285 3.2 9.7 0.00 0.00 0.00 53 1017.4
20260506192137 22 315 3.2 4.8 0.00 0.00 0.00 55 1017.4
20260506191556 21 0 3.2 16.1 0.00 0.00 0.00 53 1017.5
20260506191114 22 219 4.8 14.5 0.00 0.00 0.00 53 1017.6
20260506190122 22 0 3.2 9.7 0.00 0.00 0.00 52 1017.7
20260506190058 22 279 4.8 11.3 0.00 0.00 0.00 54 1017.7
20260506185059 21 0 3.2 9.7 0.00 0.00 0.00 53 1017.8
20260506184558 20 340 3.2 11.3 0.00 0.00 0.00 56 1017.8
20260506184053 21 298 1.6 9.7 0.00 0.00 0.00 55 1017.9
20260506183058 21 72 1.6 6.4 0.00 0.00 0.00 54 1018.0
20260506181944 20 286 3.2 6.4 0.00 0.00 0.00 55 1018.0
20260506181559 20 288 3.2 12.9 0.00 0.00 0.00 56 1018.2
20260506180916 20 273 4.8 9.7 0.00 0.00 0.00 56 1018.1
20260506180105 20 275 3.2 12.9 0.00 0.00 0.00 59 1018.4
20260506174759 20 0 1.6 8.0 0.00 0.00 0.00 58 1018.4
20260506174558 20 360 0.0 11.3 0.00 0.00 0.00 58 1018.5
20260506173725 19 321 1.6 8.0 0.00 0.00 0.00 59 1018.4
20260506173123 18 287 0.0 8.0 0.00 0.00 0.00 62 1018.5
20260506171635 17 184 1.6 11.3 0.00 0.00 0.00 65 1018.5
20260506171603 17 184 3.2 12.9 0.00 0.00 0.00 65 1018.5
20260506170619 17 15 1.6 4.8 0.00 0.00 0.00 63 1018.6
20260506170059 16 57 3.2 6.4 0.00 0.00 0.00 64 1018.7
20260506165640 16 56 1.6 4.8 0.00 0.00 0.00 64 1018.7
20260506164629 17 202 1.6 4.8 0.00 0.00 0.00 64 1018.6
20260506164558 17 205 1.6 6.4 0.00 0.00 0.00 65 1018.6
20260506163617 16 211 1.6 3.2 0.00 0.00 0.00 67 1018.7
20260506163109 15 0 1.6 8.0 0.00 0.00 0.00 68 1018.7
20260506162603 16 179 1.6 8.0 0.00 0.00 0.00 71 1018.7
20260506161559 15 143 0.0 9.7 0.00 0.00 0.00 73 1018.7
20260506161539 16 143 1.6 8.0 0.00 0.00 0.00 73 1018.7
20260506160508 16 165 0.0 1.6 0.00 0.00 0.00 74 1018.7
20260506160108 15 0 0.0 6.4 0.00 0.00 0.00 75 1018.7
20260506155527 15 184 1.6 4.8 0.00 0.00 0.00 76 1018.7
20260506154600 14 192 1.6 4.8 0.00 0.00 0.00 77 1018.7
20260506154522 14 192 0.0 1.6 0.00 0.00 0.00 77 1018.8
20260506153534 14 189 0.0 0.0 0.00 0.00 0.00 78 1018.8
20260506153103 13 0 0.0 0.0 0.00 0.00 0.00 79 1018.8
20260506152543 13 189 0.0 0.0 0.00 0.00 0.00 80 1018.8
20260506151558 13 190 0.0 6.4 0.00 0.00 0.00 80 1018.8
20260506150438 13 192 0.0 0.0 0.00 0.00 0.00 83 1018.8
20260506150104 13 0 0.0 3.2 0.00 0.00 0.00 83 1018.8
20260506144601 12 0 0.0 3.2 0.00 0.00 0.00 87 1018.8
20260506144308 12 192 0.0 1.6 0.00 0.00 0.00 88 1018.8
20260506143311 11 279 0.0 0.0 0.00 0.00 0.00 89 1018.8
20260506143058 11 0 0.0 0.0 0.00 0.00 0.00 89 1018.7
20260506142254 11 279 0.0 0.0 0.00 0.00 0.00 90 1018.6
20260506141559 11 0 0.0 0.0 0.00 0.00 0.00 91 1018.7
20260506141317 11 279 0.0 0.0 0.00 0.00 0.00 91 1018.7
20260506140246 11 279 0.0 0.0 0.00 0.00 0.00 91 1018.6
20260506140100 11 0 0.0 0.0 0.00 0.00 0.00 91 1018.7
20260506135245 11 279 0.0 0.0 0.00 0.00 0.00 91 1018.6
20260506134618 10 0 0.0 0.0 0.00 0.00 0.00 92 1018.5
20260506134234 10 279 0.0 0.0 0.00 0.00 0.00 91 1018.5
20260506133251 10 279 0.0 0.0 0.00 0.00 0.00 91 1018.4
20260506133059 10 0 0.0 0.0 0.00 0.00 0.00 91 1018.3
20260506131612 9 0 0.0 0.0 0.00 0.00 0.00 91 1018.1
20260506131048 9 279 0.0 0.0 0.00 0.00 0.00 91 1018.0
20260506130057 9 0 0.0 0.0 0.00 0.00 0.00 91 1018.0
20260506130032 9 279 0.0 0.0 0.00 0.00 0.00 91 1017.9
20260506125053 9 279 0.0 0.0 0.00 0.00 0.00 91 1017.8
20260506124557 9 0 0.0 0.0 0.00 0.03 0.00 91 1017.9